Regional Weather Roundup
Issued by NWS

Current Version | Previous Version | Text Only | Print | Product List | Glossary On
Versions: 1 2 3 4 5 6 7 8 9 10 11 12 13 14 15 16 17 18 19 20 21 22 23 24 25 26 27 28 29 30 31 32 33 34 35 36 37 38 39 40 41 42 43 44 45 46 47 48 49 50
000
ASUS45 KABQ 010710
RWRNM
NEW MEXICO REGIONAL WEATHER ROUNDUP
NATIONAL WEATHER SERVICE ALBUQUERQUE NM
100 AM MDT TUE SEP 01 2015

NOTE: "FAIR" MEANS FEW OR NO CLOUDS BELOW 12,000 FEET AGL WITH NO
       SIGNIFICANT WEATHER OR OBSTRUCTIONS TO VISION.

      THIS PRODUCT IS RELEASED AS TWO VERSIONS.  ONE VERSION NEAR
      THE TOP OF THE HOUR CONTAINING PRELIMINARY DATA FROM ALBUQUERQUE
      AND OTHER STATIONS.  A FINAL VERSION WITH ADDITIONAL DATA IS
      ISSUED ABOUT 10 MINUTES AFTER THE HOUR.

NMZ501-503-504-510>518-010800-
NORTHWEST PLATEAU/NORTHCENTRAL MOUNTAINS

CITY           SKY/WX    TMP DP  RH WIND       PRES   REMARKS
FARMINGTON     CLEAR     68  47  46 S8        30.16S
LOS ALAMOS     MOCLDY    67  45  44 NW8       30.29R
SANTA FE       MOCLDY    65  51  60 NE8       30.22S
TAOS           PTCLDY    54  39  58 NE6       30.31S
ANGEL FIRE     FAIR      49  48  97 E3        30.39F

$$
NMZ402-403-502-505>509-010800-
WESTCENTRAL MOUNTAINS/SOUTHWEST MOUNTAINS

CITY           SKY/WX    TMP DP  RH WIND       PRES   REMARKS
GALLUP         MOCLDY    57  49  74 CALM      30.27S
GRANTS         CLOUDY    61  52  72 S3        30.29S
SILVER CITY      N/A     68  52  56 NW16G23   30.21S

$$
NMZ407-409-411-412-010800-
SOUTHERN DESERTS

CITY           SKY/WX    TMP DP  RH WIND       PRES   REMARKS
LORDSBURG      FAIR      68  57  68 NW9       30.14R
DEMING         CLEAR     75  52  44 NW9       30.11S
LAS CRUCES     CLEAR     70  47  44 NW5       30.11S
HOLLOMAN AFB   MOCLDY    74  54  48 N6        30.05R
ALAMOGORDO     PTCLDY    75  50  41 N5        30.06S
T OR C         PTCLDY    74  51  44 NW12      30.13S

$$
NMZ519>523-010800-
CENTRAL VALLEYS/CENTRAL HIGHLANDS

CITY           SKY/WX    TMP DP  RH WIND       PRES   REMARKS
ALBUQUERQUE    MOCLDY    73  48  41 CALM      30.18S
DOUBLE EAGLE   CLOUDY    68  49  51 NE5       30.21F
MORIARTY ARPT  FAIR      59  48  67 CALM      30.24R
CLINES CORNERS PTCLDY    64  45  49 SW3       30.28R
BELEN          FAIR      73  46  37 W5        30.17R
SOCORRO        FAIR      74  47  37 NE5       30.13S

$$
NMZ524>526-539-540-010800-
SOUTHCENTRAL MOUNTAINS

CITY           SKY/WX    TMP DP  RH WIND       PRES   REMARKS
RUIDOSO        PTCLDY    61  50  67 MISG      30.28F

$$
NMZ527>531-010800-
NORTHEAST HIGHLANDS/NORTHEAST PLAINS

CITY           SKY/WX    TMP DP  RH WIND       PRES   REMARKS
LAS VEGAS      PTCLDY    58  50  75 N7        30.26S
RATON          CLOUDY    64  50  60 NE6       30.21R
CLAYTON        CLOUDY    67  57  70 N3        30.14R

$$
NMZ532>537-010800-
EASTCENTRAL PLAINS

CITY           SKY/WX    TMP DP  RH WIND       PRES   REMARKS
TUCUMCARI      PTCLDY    78  48  34 SW8       30.05S
CANNON AFB     CLEAR     68  51  54 S1        30.09S
CLOVIS AIRPORT PTCLDY    68  52  56 SW8       30.10S

$$
NMZ028-029-538-010800-
SOUTHEAST PLAINS

CITY           SKY/WX    TMP DP  RH WIND       PRES   REMARKS
ROSWELL        CLEAR     71  49  45 S3        30.04S
ARTESIA        PTCLDY    75  48  38 S9        30.04S
CARLSBAD       CLEAR     77  47  34 S8        30.01F


$$



USA.gov is the U.S. government's official web portal to all federal, state and local government web resources and services.